Regional Weather Roundup
Issued by NWS Charleston, SC

Current Version | Previous Version | Graphics & Text | Print | Product List | Glossary On
Versions: 1 2 3 4 5 6 7 8 9 10 11 12 13 14 15 16 17 18 19 20 21 22 23 24 25 26 27 28 29 30 31 32 33 34 35 36 37 38 39 40 41 42 43 44 45 46 47 48 49 50
000 ASUS42 KCHS 182227 RWRCHS REGIONAL WEATHER ROUNDUP NATIONAL WEATHER SERVICE CHARLESTON SC 500 PM EST SAT NOV 18 2017 NOTE: "FAIR" INDICATES FEW OR NO CLOUDS BELOW 12,000 FEET WITH NO SIGNIFICANT WEATHER AND/OR OBSTRUCTIONS TO VISIBILITY. NOT ALL STATIONS ARE QUALITY CONTROLLED. USE DATA WITH CAUTION... ESPECIALLY DEWPOINT OBSERVATIONS. SCZ027-030-031-034>040-042>050-182300- ...SOUTHEAST SOUTH CAROLINA... CITY SKY/WX TMP DP RH WIND PRES REMARKS N CHARLESTON PTCLDY 70 56 61 SW13 29.86S WATERFRONT PRK NOT AVBL JOHNS ISLAND FAIR 68 59 73 S8 29.87S PINOPOLIS N/A 72 55 56 S8 29.77F MONCKS CORNER FAIR 66 54 63 SW5 29.84F SUMMERVILLE FAIR 70 55 60 S5 29.85F BEAUFORT MCAS CLEAR 71 59 65 S12G18 29.86S BEAUFORT ARPT FAIR 66 59 77 S8 29.86S HAZE HILTON HEAD IS CLEAR 68 59 73 S8 29.88F WALTERBORO CLEAR 68 54 60 S6 29.86R ALLENDALE FAIR 70 52 52 CALM 29.84S ...SOUTHERN MIDLANDS AND PEE DEE... CITY SKY/WX TMP DP RH WIND PRES REMARKS GEORGETOWN FAIR 68 57 68 S7 29.86F KINGSTREE FAIR 68 54 60 S6 29.82F ORANGEBURG CLEAR 69 52 54 SW9 29.83F BARNWELL N/A 72 54 53 SW6 29.84S AIKEN FAIR 66 50 55 S8 29.85F MANNING FAIR 68 59 73 MISG 29.82F COLUMBIA PTCLDY 72 52 49 SW9 29.81F SUMTER PTCLDY 70 51 51 S12 29.78F FLORENCE PTCLDY 68 56 65 S6 29.81F MYRTLE BEACH PTCLDY 69 57 65 S12 29.85F N MYRTLE BEACH CLOUDY 67 59 75 S13 29.84F $$ GAZ063-065-086>088-099>101-113>116-118-119-134>141-150-182300- ...SOUTHEAST GEORGIA... CITY SKY/WX TMP DP RH WIND PRES REMARKS SAVANNAH ARPT PTCLDY 73 53 49 SW8 29.87S HUNTER AAF CLEAR 72 58 60 S5 29.84F FORT STEWART CLEAR 72 52 49 SW7 29.85S STATESBORO CLEAR 71 47 43 SW5 29.86R SYLVANIA CLEAR 71 55 58 CALM 29.86S CLAXTON FAIR 72 54 52 S3 29.86S ...CSRA...CENTRAL AND FAR SOUTHEAST GEORGIA... CITY SKY/WX TMP DP RH WIND PRES REMARKS THOMSON PTCLDY 65 52 60 W5 29.87S AUGUSTA-BUSH CLEAR 71 51 49 SW7 29.82F AUGUSTA-DANIEL CLEAR 72 51 47 SW12 29.83F SWAINSBORO FAIR 70 54 56 N6 29.86S VIDALIA CLEAR 72 54 53 SW5 29.86S EASTMAN FAIR 72 41 32 SW5 29.88S HAZLEHURST FAIR 72 42 34 SW7 29.86S ALMA CLEAR 73 53 49 SW7 29.87F WAYCROSS CLEAR 71 50 47 SW7 29.89S JESUP FAIR 72 54 53 SW3 29.88F BAXLEY FAIR 68 52 56 SW5 29.87F BRUNSWICK CLEAR 70 57 64 S7 29.90S SAINT SIMONS CLEAR 69 61 75 S9 29.89S $$ SCZ027-028-034-036>038-045-046-048>050-GAZ119-141-182300- ...LAKE AND SUPPLEMENTAL COASTAL OBSERVATIONS... STATION/POSITION TIME TEMP WIND PRES WAVE SWELL AIR SEA DIR/SP/G HT/PER HT/PER/DIR (UTC) (F) (DEG/KT/KT) (MB) (FT/S) (FT/S/D) WINYAH BAY 2145 70 220/ 10 1011.0S LAKE MURRAY 2150 69 220/ 9/ 14 1008.5F ACE BASIN NERRS 2145 70 170/ 1 1011.0S FORT PULASKI NOT AVBL SAPELO ISLAND 2200 69 180/ 8 1012.0 $$ ANZ835-935-AMZ111-154-330-350-352-354-370-450-454-472-182300- ...C-MAN AND BUOY OBSERVATIONS... STATION/POSITION TIME TEMP WIND PRES WAVE SWELL AIR SEA DIR/SP/G HT/PER HT/PER/DIR (UTC) (F) (DEG/KT/KT) (MB) (FT/S) (FT/S/D) BUOY 41004 2210 72 76 240/ 16/ 19 1011.3 BUOY 41008 2150 69 69 160/ 12/ 16 1011.9F 2/ 7 2/ 70/ 7 FOLLY BEACH CMAN 2200 65 200/ 8/ 9 1012.1F CAPERS NEARSHORE 2208 64 63 210/ 10/ 16 1011.2F FRIPP NEARSHORE 2208 64 63 200/ 10/ 12 1010.4F STATION/POSITION TIME TEMP WIND PRES WAVE SWELL AIR SEA DIR/SP/G HT/PER HT/PER/DIR (UTC) (F) (DEG/KT/KT) (MB) (FT/S) (FT/S/D) 5E ST. MARYS GA 2200 66 N/A 3/13 2/100/13 FRYING PAN BUOY 2210 73 71 200/ 21/ 25 1010.7 BUOY 41025 2210 71 69 200/ 21/ 27 1011.1 CAPE LOOKOUT NC 2200 67 200/ 12/ 16 1011.3F BUOY 41002 2150 71 77 200/ 10/ 12 1015.1F 5/ 9 5/ 9 BUOY 41010 NOT AVBL ST AUGUSTINE FL 2200 70 70 160/ 9/ 10 1013.3F $$

USA.gov is the U.S. government's official web portal to all federal, state and local government web resources and services.